Flag for Portugal Weather past 2 weeks in Lisbon, Portugal

Now
59 °F

Passing clouds.


Feels Like: 57 °F
Forecast: 57 / 63 °F
Wind: 9 mph from Southwest

Location: Lisbon Portela Airport

Current Time: Apr 25, 2015 at 6:07:33 AM

Latest Report: Apr 25, 2015 at 5:30 AM


Visibility: N/A

Pressure: 29.95 "Hg

Humidity: 94%

Dew point: 57 °F

Location of LisbonLocation

Historic Weather in Lisbon — Graph

°F

Lisbon temperature yesterday

Maximum temperature yesterday: 68 °F (at 4:30 PM)
Minimum temperature yesterday: 55 °F (at 3:30 AM)
Average temperature yesterday: 61 °F

Past Weeks' High & Low Weather Summary

 TemperatureHumidityPressure
High75 °F (Apr 13, 4:00 PM)100% (Apr 10, 5:00 AM)30.27 "Hg (Apr 10, 5:00 AM)
Low48 °F (Apr 20, 4:30 AM)35% (Apr 23, 3:00 PM)29.92 "Hg (Apr 14, 3:00 PM)
Average60 °F76%30.08 "Hg
* Reported Apr 10 5:00 AM — Apr 25 5:00 AM, Lisbon, Weather by CustomWeather, © 2015

Note: Actual official high and low records may vary slightly from our data, if they occured in-between our weather recording intervals... More about our weather records

Advertising

Lisbon weather history for previous 24 hours

 ConditionsComfort  
Time TempWeatherWind HumidityBarometerVisibility
5:00 AM
Sat, Apr 25
59 °FPassing clouds.12 mph94%29.98 "HgN/A
4:30 AM61 °FPartly cloudy.12 mph88%29.98 "HgN/A
4:00 AM61 °FPartly cloudy.14 mph88%29.98 "HgN/A
3:30 AM61 °FPassing clouds.14 mph94%29.98 "HgN/A
3:00 AM61 °FPassing clouds.13 mph94%29.98 "HgN/A
2:30 AM61 °FPassing clouds.14 mph94%29.98 "HgN/A
2:00 AM61 °FPassing clouds.13 mph94%29.98 "HgN/A
1:30 AM61 °FPassing clouds.12 mph94%30.01 "HgN/A
1:00 AM61 °FPassing clouds.12 mph94%30.01 "HgN/A
12:30 AM61 °FPassing clouds.9 mph94%30.01 "HgN/A
12:00 AM61 °FPassing clouds.10 mph94%30.01 "HgN/A
11:30 PM
Fri, Apr 24
61 °FPartly cloudy.8 mph94%30.01 "HgN/A
11:00 PM61 °FSprinkles. Partly cloudy.8 mph94%30.01 "HgN/A
10:30 PM61 °FSprinkles. Partly cloudy.9 mph94%30.01 "HgN/A
10:00 PM61 °FPartly cloudy.12 mph94%30.01 "HgN/A
9:30 PM61 °FPartly cloudy.10 mph94%30.01 "HgN/A
9:00 PM61 °FDrizzle. Broken clouds.13 mph94%29.98 "HgN/A
8:30 PM61 °FScattered clouds.13 mph88%29.98 "HgN/A
8:00 PM63 °FScattered clouds.12 mph83%29.98 "HgN/A
7:30 PM63 °FScattered clouds.13 mph83%29.98 "HgN/A
7:00 PM64 °FPassing clouds.14 mph73%29.98 "HgN/A
6:30 PM64 °FPassing clouds.15 mph73%29.98 "HgN/A
6:00 PM64 °FScattered clouds.15 mph73%29.98 "HgN/A
5:30 PM66 °FScattered clouds.16 mph68%29.98 "HgN/A
5:00 PM66 °FPartly sunny.16 mph68%29.98 "HgN/A
4:30 PM68 °FPartly sunny.15 mph73%29.98 "HgN/A
4:00 PM66 °FBroken clouds.17 mph73%29.98 "HgN/A
3:30 PM66 °FBroken clouds.15 mph73%29.98 "HgN/A
3:00 PM66 °FScattered clouds.13 mph73%29.98 "HgN/A
2:30 PM66 °FScattered clouds.13 mph73%29.98 "HgN/A
2:00 PM66 °FScattered clouds.12 mph78%29.98 "HgN/A
1:30 PM64 °FScattered clouds.10 mph83%30.01 "HgN/A
1:00 PM64 °FBroken clouds.10 mph83%30.01 "HgN/A
12:30 PM63 °FBroken clouds.9 mph88%30.01 "HgN/A
12:00 PM63 °FBroken clouds.8 mph88%30.04 "HgN/A
11:30 AM61 °FBroken clouds.8 mph94%30.01 "HgN/A
11:00 AM61 °FDrizzle. Partly sunny.7 mph94%30.04 "Hg5 mi
10:30 AM59 °FDrizzle. Broken clouds.9 mph100%30.04 "Hg2 mi
10:00 AM61 °FDrizzle. Broken clouds.9 mph88%30.04 "Hg3 mi
9:30 AM61 °FBroken clouds.7 mph88%30.04 "HgN/A
9:00 AM61 °FBroken clouds.6 mph88%30.04 "HgN/A
8:30 AM59 °FBroken clouds.5 mph94%30.01 "HgN/A
8:00 AM59 °FBroken clouds.6 mph94%30.01 "HgN/A
7:30 AM59 °FPassing clouds.5 mph94%30.01 "HgN/A
7:00 AM59 °FPassing clouds.1 mph88%30.01 "HgN/A
6:30 AM59 °FPassing clouds.No wind88%30.01 "HgN/A
6:00 AM59 °FPassing clouds.2 mph88%30.01 "HgN/A
Weather by CustomWeather, © 2015

See weather overviewHow to use our weather pages